Location: Cartignies
(50.0929°N, 3.8447°E)
Time: 14:48:38
(UTC+00:00)

Cosmos 1515 Rocket - Pass Details

Date: 12 January 2026
Orbit: 599 x 623 km, 82.5° (Epoch: 16 February)

Event Time Altitude Azimuth Distance (km) Brightness Sun altitude
Rises 17:19:54 0° 158° (SSE) 2,882 7.0 -11.3°
Reaches altitude 10° 17:22:21 10° 146° (SSE) 1,985 6.0 -11.7°
Maximum altitude 17:26:04 27° 89° (E) 1,194 4.5 -12.2°
Enters shadow 17:29:13 13° 36° (NE) 1,803 5.5 -12.7°
